| time (UTC) | temp C | wind direction | speed KPH | gust KPH | rain 1hr cm | rain 24hr cm | rain mn cm | humidity % | barometer mb |
| 20260903035018 | 25 | 18 | 0.0 | 0.0 | 0.00 | 0.00 | 0.00 | 82 | 1016.2 |
| 20260903034040 | 25 | 1 | 0.0 | 0.0 | 0.00 | 0.00 | 0.00 | 82 | 1016.2 |
| 20260903033018 | 25 | 0.0 | 0.0 | 0.00 | 0.00 | 0.00 | 81 | 1016.3 | |
| 20260903032038 | 25 | 102 | 0.0 | 0.0 | 0.00 | 0.00 | 0.00 | 81 | 1016.2 |
| 20260903031018 | 25 | 2 | 0.0 | 0.0 | 0.00 | 0.00 | 0.00 | 81 | 1016.3 |
| 20260903030019 | 26 | 83 | 0.0 | 1.6 | 0.00 | 0.00 | 0.00 | 80 | 1016.3 |
| 20260903025019 | 26 | 44 | 0.0 | 1.6 | 0.00 | 0.00 | 0.00 | 79 | 1016.3 |
| 20260903024019 | 26 | 115 | 0.0 | 1.6 | 0.00 | 0.00 | 0.00 | 79 | 1016.2 |
| 20260903023016 | 26 | 44 | 0.0 | 1.6 | 0.00 | 0.00 | 0.00 | 79 | 1016.2 |
| 20260903022057 | 26 | 49 | 0.0 | 1.6 | 0.00 | 0.00 | 0.00 | 79 | 1016.2 |
| 20260903021017 | 26 | 108 | 0.0 | 1.6 | 0.00 | 0.00 | 0.00 | 78 | 1016.2 |
| 20260903020020 | 26 | 35 | 0.0 | 3.2 | 0.00 | 0.00 | 0.00 | 78 | 1016.1 |
| 20260903015020 | 27 | 132 | 0.0 | 1.6 | 0.00 | 0.00 | 0.00 | 77 | 1016.0 |
| 20260903014017 | 27 | 36 | 0.0 | 1.6 | 0.00 | 0.00 | 0.00 | 77 | 1015.9 |
| 20260903013017 | 27 | 58 | 0.0 | 1.6 | 0.00 | 0.00 | 0.00 | 76 | 1015.9 |
| 20260903012017 | 27 | 47 | 0.0 | 1.6 | 0.00 | 0.00 | 0.00 | 76 | 1015.8 |
| 20260903011018 | 28 | 81 | 0.0 | 1.6 | 0.00 | 0.00 | 0.00 | 75 | 1015.8 |
| 20260903010018 | 28 | 101 | 0.0 | 1.6 | 0.00 | 0.00 | 0.00 | 74 | 1015.8 |
| 20260903005018 | 28 | 43 | 0.0 | 1.6 | 0.00 | 0.00 | 0.00 | 73 | 1015.7 |
| 20260903004018 | 29 | 70 | 0.0 | 1.6 | 0.00 | 0.00 | 0.00 | 70 | 1015.7 |
| 20260903003018 | 30 | 83 | 1.6 | 3.2 | 0.00 | 0.00 | 0.00 | 68 | 1015.8 |
| 20260903002019 | 31 | 61 | 0.0 | 1.6 | 0.00 | 0.00 | 0.00 | 66 | 1015.7 |
| 20260903001037 | 31 | 82 | 1.6 | 3.2 | 0.00 | 0.00 | 0.00 | 63 | 1015.7 |
| 20260903000016 | 33 | 66 | 1.6 | 1.6 | 0.00 | 0.00 | 0.00 | 58 | 1015.7 |
| 20260902235037 | 34 | 73 | 1.6 | 3.2 | 0.00 | 0.00 | 0.00 | 54 | 1015.8 |
| 20260902234039 | 35 | 76 | 1.6 | 4.8 | 0.00 | 0.00 | 0.00 | 51 | 1015.8 |
| 20260902233020 | 34 | 69 | 1.6 | 6.4 | 0.00 | 0.00 | 0.00 | 51 | 1015.8 |
| 20260902232020 | 34 | 57 | 1.6 | 4.8 | 0.00 | 0.00 | 0.00 | 51 | 1015.8 |
| 20260902231037 | 35 | 71 | 1.6 | 3.2 | 0.00 | 0.00 | 0.00 | 48 | 1015.8 |
| 20260902230017 | 36 | 80 | 3.2 | 3.2 | 0.00 | 0.00 | 0.00 | 44 | 1015.8 |
| 20260902225018 | 37 | 53 | 1.6 | 6.4 | 0.00 | 0.00 | 0.00 | 42 | 1015.8 |
| 20260902224017 | 38 | 72 | 3.2 | 4.8 | 0.00 | 0.00 | 0.00 | 39 | 1015.8 |
| 20260902223018 | 39 | 77 | 3.2 | 6.4 | 0.00 | 0.00 | 0.00 | 38 | 1015.8 |
| 20260902222018 | 39 | 61 | 3.2 | 8.0 | 0.00 | 0.00 | 0.00 | 38 | 1015.9 |
| 20260902221018 | 39 | 116 | 1.6 | 8.0 | 0.00 | 0.00 | 0.00 | 37 | 1015.9 |
| 20260902220018 | 38 | 61 | 3.2 | 6.4 | 0.00 | 0.00 | 0.00 | 39 | 1015.9 |
| 20260902215018 | 37 | 74 | 4.8 | 8.0 | 0.00 | 0.00 | 0.00 | 40 | 1015.9 |
| 20260902214018 | 38 | 62 | 3.2 | 9.7 | 0.00 | 0.00 | 0.00 | 39 | 1015.9 |
| 20260902213019 | 38 | 52 | 3.2 | 9.7 | 0.00 | 0.00 | 0.00 | 39 | 1016.0 |
| 20260902212019 | 38 | 58 | 3.2 | 6.4 | 0.00 | 0.00 | 0.00 | 38 | 1016.1 |
| 20260902211016 | 38 | 65 | 3.2 | 9.7 | 0.00 | 0.00 | 0.00 | 39 | 1016.1 |
| 20260902210019 | 37 | 69 | 3.2 | 8.0 | 0.00 | 0.00 | 0.00 | 40 | 1016.2 |
| 20260902205019 | 38 | 76 | 3.2 | 6.4 | 0.00 | 0.00 | 0.00 | 39 | 1016.3 |
| 20260902204019 | 38 | 59 | 3.2 | 6.4 | 0.00 | 0.00 | 0.00 | 38 | 1016.3 |
| 20260902203019 | 38 | 78 | 3.2 | 8.0 | 0.00 | 0.00 | 0.00 | 39 | 1016.4 |
| 20260902202017 | 38 | 74 | 3.2 | 8.0 | 0.00 | 0.00 | 0.00 | 39 | 1016.5 |
| 20260902201017 | 37 | 58 | 3.2 | 8.0 | 0.00 | 0.00 | 0.00 | 42 | 1016.7 |
| 20260902200017 | 37 | 59 | 3.2 | 8.0 | 0.00 | 0.00 | 0.00 | 42 | 1016.9 |
| 20260902195017 | 37 | 56 | 3.2 | 8.0 | 0.00 | 0.00 | 0.00 | 41 | 1016.9 |
| 20260902194020 | 37 | 16 | 3.2 | 8.0 | 0.00 | 0.00 | 0.00 | 40 | 1017.1 |
| 20260902193020 | 37 | 67 | 3.2 | 9.7 | 0.00 | 0.00 | 0.00 | 41 | 1017.2 |
| 20260902192017 | 37 | 86 | 3.2 | 9.7 | 0.00 | 0.00 | 0.00 | 41 | 1017.3 |
| 20260902191018 | 37 | 87 | 3.2 | 8.0 | 0.00 | 0.00 | 0.00 | 41 | 1017.4 |
| 20260902190018 | 36 | 85 | 3.2 | 8.0 | 0.00 | 0.00 | 0.00 | 41 | 1017.5 |
| 20260902185018 | 36 | 72 | 3.2 | 4.8 | 0.00 | 0.00 | 0.00 | 43 | 1017.6 |
| 20260902184038 | 35 | 89 | 3.2 | 9.7 | 0.00 | 0.00 | 0.00 | 44 | 1017.7 |
| 20260902183018 | 35 | 64 | 3.2 | 6.4 | 0.00 | 0.00 | 0.00 | 45 | 1017.7 |
| 20260902182018 | 35 | 276 | 3.2 | 6.4 | 0.00 | 0.00 | 0.00 | 43 | 1017.7 |
| 20260902181019 | 35 | 107 | 4.8 | 9.7 | 0.00 | 0.00 | 0.00 | 44 | 1017.8 |
| 20260902180019 | 35 | 98 | 3.2 | 9.7 | 0.00 | 0.00 | 0.00 | 44 | 1018.0 |
| 20260902175019 | 35 | 80 | 3.2 | 8.0 | 0.00 | 0.00 | 0.00 | 46 | 1018.1 |
| 20260902174039 | 34 | 141 | 3.2 | 6.4 | 0.00 | 0.00 | 0.00 | 45 | 1018.2 |
| 20260902173019 | 35 | 307 | 4.8 | 9.7 | 0.00 | 0.00 | 0.00 | 45 | 1018.3 |
| 20260902172016 | 34 | 104 | 3.2 | 6.4 | 0.00 | 0.00 | 0.00 | 46 | 1018.4 |
| 20260902171016 | 34 | 97 | 4.8 | 8.0 | 0.00 | 0.00 | 0.00 | 46 | 1018.6 |
| 20260902170019 | 34 | 85 | 3.2 | 8.0 | 0.00 | 0.00 | 0.00 | 45 | 1018.8 |
| 20260902165020 | 34 | 105 | 4.8 | 8.0 | 0.00 | 0.00 | 0.00 | 45 | 1018.9 |
| 20260902164020 | 33 | 95 | 3.2 | 6.4 | 0.00 | 0.00 | 0.00 | 47 | 1019.0 |
| 20260902163029 | 33 | 74 | 1.6 | 3.2 | 0.00 | 0.00 | 0.00 | 47 | 1019.1 |
| 20260902162029 | 33 | 277 | 3.2 | 4.8 | 0.00 | 0.00 | 0.00 | 46 | 1019.2 |
| 20260902161029 | 33 | 120 | 1.6 | 4.8 | 0.00 | 0.00 | 0.00 | 48 | 1019.3 |
| 20260902160029 | 33 | 190 | 3.2 | 4.8 | 0.00 | 0.00 | 0.00 | 47 | 1019.3 |
| 20260902155030 | 32 | 210 | 3.2 | 6.4 | 0.00 | 0.00 | 0.00 | 48 | 1019.4 |
| 20260902154030 | 32 | 113 | 3.2 | 6.4 | 0.00 | 0.00 | 0.00 | 49 | 1019.3 |
| 20260902153030 | 32 | 128 | 3.2 | 4.8 | 0.00 | 0.00 | 0.00 | 50 | 1019.4 |
| 20260902152030 | 31 | 237 | 3.2 | 3.2 | 0.00 | 0.00 | 0.00 | 51 | 1019.4 |
| 20260902151050 | 31 | 328 | 3.2 | 4.8 | 0.00 | 0.00 | 0.00 | 53 | 1019.3 |
| 20260902150030 | 31 | 233 | 1.6 | 4.8 | 0.00 | 0.00 | 0.00 | 56 | 1019.3 |
| 20260902145030 | 30 | 151 | 1.6 | 3.2 | 0.00 | 0.00 | 0.00 | 57 | 1019.3 |
| 20260902144031 | 30 | 265 | 1.6 | 3.2 | 0.00 | 0.00 | 0.00 | 58 | 1019.3 |
| 20260902143031 | 29 | 256 | 1.6 | 3.2 | 0.00 | 0.00 | 0.00 | 62 | 1019.3 |
| 20260902142031 | 28 | 305 | 1.6 | 3.2 | 0.00 | 0.00 | 0.00 | 64 | 1019.3 |
| 20260902141031 | 28 | 215 | 0.0 | 3.2 | 0.00 | 0.00 | 0.00 | 65 | 1019.2 |
| 20260902140051 | 27 | 286 | 1.6 | 4.8 | 0.00 | 0.00 | 0.00 | 69 | 1019.2 |
| 20260902135051 | 26 | 35 | 0.0 | 1.6 | 0.00 | 0.00 | 0.00 | 74 | 1019.2 |
| 20260902134017 | 25 | 14 | 0.0 | 1.6 | 0.00 | 0.00 | 0.00 | 79 | 1019.1 |
| 20260902133031 | 25 | 48 | 0.0 | 1.6 | 0.00 | 0.00 | 0.00 | 82 | 1019.2 |
| 20260902132017 | 23 | 25 | 0.0 | 1.6 | 0.00 | 0.00 | 0.00 | 85 | 1019.1 |
| 20260902131017 | 23 | 358 | 0.0 | 1.6 | 0.00 | 0.00 | 0.00 | 88 | 1019.1 |
| 20260902130017 | 22 | 313 | 0.0 | 1.6 | 0.00 | 0.00 | 0.00 | 89 | 1019.1 |
| 20260902125017 | 22 | 322 | 0.0 | 1.6 | 0.00 | 0.00 | 0.00 | 89 | 1019.1 |
| 20260902124038 | 22 | 327 | 0.0 | 1.6 | 0.00 | 0.00 | 0.00 | 90 | 1019.1 |
| 20260902123018 | 22 | 2 | 0.0 | 1.6 | 0.00 | 0.00 | 0.00 | 90 | 1019.0 |
| 20260902122018 | 21 | 335 | 0.0 | 0.0 | 0.00 | 0.00 | 0.00 | 90 | 1018.9 |
| 20260902121018 | 21 | 43 | 0.0 | 1.6 | 0.00 | 0.00 | 0.00 | 90 | 1018.8 |
| 20260902120018 | 21 | 55 | 0.0 | 1.6 | 0.00 | 0.00 | 0.00 | 90 | 1018.7 |
| 20260902115018 | 21 | 123 | 0.0 | 1.6 | 0.00 | 0.00 | 0.00 | 90 | 1018.5 |
| 20260902114018 | 21 | 82 | 0.0 | 1.6 | 0.00 | 0.00 | 0.00 | 90 | 1018.5 |
| 20260902113018 | 21 | 322 | 0.0 | 1.6 | 0.00 | 0.00 | 0.00 | 90 | 1018.4 |
| 20260902112019 | 21 | 304 | 0.0 | 1.6 | 0.00 | 0.00 | 0.00 | 90 | 1018.3 |
| 20260902111019 | 21 | 59 | 0.0 | 1.6 | 0.00 | 0.00 | 0.00 | 90 | 1018.3 |
| 20260902110019 | 21 | 28 | 1.6 | 3.2 | 0.00 | 0.00 | 0.00 | 90 | 1018.2 |
| 20260902105019 | 21 | 102 | 0.0 | 1.6 | 0.00 | 0.00 | 0.00 | 90 | 1018.1 |
| 20260902104039 | 21 | 100 | 0.0 | 1.6 | 0.00 | 0.00 | 0.00 | 90 | 1018.1 |
| 20260902103019 | 21 | 105 | 0.0 | 1.6 | 0.00 | 0.00 | 0.00 | 89 | 1018.0 |
| 20260902102040 | 21 | 46 | 0.0 | 1.6 | 0.00 | 0.00 | 0.00 | 89 | 1017.9 |
| 20260902101020 | 21 | 79 | 0.0 | 1.6 | 0.00 | 0.00 | 0.00 | 89 | 1017.8 |
| 20260902100021 | 21 | 32 | 0.0 | 0.0 | 0.00 | 0.00 | 0.00 | 89 | 1017.7 |
| 20260902095020 | 21 | 56 | 0.0 | 1.6 | 0.00 | 0.00 | 0.00 | 89 | 1017.6 |
| 20260902094020 | 21 | 60 | 0.0 | 1.6 | 0.00 | 0.00 | 0.00 | 89 | 1017.5 |
| 20260902093021 | 21 | 93 | 0.0 | 1.6 | 0.00 | 0.00 | 0.00 | 89 | 1017.4 |
| 20260902092021 | 21 | 313 | 0.0 | 1.6 | 0.00 | 0.00 | 0.00 | 89 | 1017.4 |
| 20260902091021 | 21 | 326 | 0.0 | 1.6 | 0.00 | 0.00 | 0.00 | 89 | 1017.3 |
| 20260902090021 | 21 | 332 | 0.0 | 0.0 | 0.00 | 0.00 | 0.00 | 88 | 1017.2 |
| 20260902085021 | 22 | 92 | 0.0 | 1.6 | 0.00 | 0.00 | 0.00 | 88 | 1017.2 |
| 20260902084021 | 22 | 18 | 0.0 | 1.6 | 0.00 | 0.00 | 0.00 | 88 | 1017.1 |
| 20260902083021 | 22 | 114 | 0.0 | 1.6 | 0.00 | 0.00 | 0.00 | 88 | 1017.1 |
| 20260902082021 | 22 | 360 | 0.0 | 1.6 | 0.00 | 0.00 | 0.00 | 88 | 1017.0 |
| 20260902081022 | 22 | 107 | 0.0 | 0.0 | 0.00 | 0.00 | 0.00 | 88 | 1017.0 |
| 20260902080022 | 22 | 114 | 0.0 | 1.6 | 0.00 | 0.00 | 0.00 | 88 | 1016.9 |
| 20260902075022 | 22 | 111 | 0.0 | 1.6 | 0.00 | 0.00 | 0.00 | 88 | 1016.9 |
| 20260902074022 | 22 | 0.0 | 0.0 | 0.00 | 0.00 | 0.00 | 87 | 1016.9 | |
| 20260902073022 | 22 | 352 | 0.0 | 0.0 | 0.00 | 0.00 | 0.00 | 87 | 1017.0 |
| 20260902072023 | 22 | 40 | 0.0 | 1.6 | 0.00 | 0.00 | 0.00 | 87 | 1017.0 |
| 20260902071023 | 22 | 85 | 0.0 | 1.6 | 0.00 | 0.00 | 0.00 | 87 | 1017.0 |
| 20260902070023 | 22 | 225 | 0.0 | 1.6 | 0.00 | 0.00 | 0.00 | 87 | 1017.0 |
| 20260902065023 | 22 | 107 | 0.0 | 0.0 | 0.00 | 0.00 | 0.00 | 87 | 1016.9 |
| 20260902064023 | 23 | 32 | 0.0 | 0.0 | 0.00 | 0.00 | 0.00 | 86 | 1017.0 |
| 20260902063024 | 23 | 338 | 0.0 | 0.0 | 0.00 | 0.00 | 0.00 | 86 | 1017.0 |
| 20260902062024 | 23 | 190 | 0.0 | 1.6 | 0.00 | 0.00 | 0.00 | 86 | 1017.0 |
| 20260902061043 | 23 | 98 | 0.0 | 1.6 | 0.00 | 0.00 | 0.00 | 86 | 1017.1 |
| 20260902060024 | 23 | 37 | 0.0 | 1.6 | 0.00 | 0.00 | 0.00 | 86 | 1017.1 |
| 20260902055024 | 23 | 26 | 0.0 | 1.6 | 0.00 | 0.00 | 0.00 | 86 | 1017.1 |
| 20260902054024 | 23 | 0.0 | 0.0 | 0.00 | 0.00 | 0.00 | 85 | 1017.1 | |
| 20260902053024 | 23 | 24 | 0.0 | 1.6 | 0.00 | 0.00 | 0.00 | 85 | 1017.1 |
| 20260902052045 | 23 | 99 | 0.0 | 1.6 | 0.00 | 0.00 | 0.00 | 85 | 1017.0 |
| 20260902051024 | 23 | 352 | 0.0 | 0.0 | 0.00 | 0.00 | 0.00 | 85 | 1017.0 |
| 20260902050045 | 23 | 0.0 | 0.0 | 0.00 | 0.00 | 0.00 | 84 | 1017.1 | |
| 20260902045025 | 23 | 1 | 0.0 | 0.0 | 0.00 | 0.00 | 0.00 | 84 | 1017.1 |
| 20260902044025 | 23 | 86 | 0.0 | 1.6 | 0.00 | 0.00 | 0.00 | 83 | 1017.1 |
| 20260902043025 | 23 | 95 | 0.0 | 1.6 | 0.00 | 0.00 | 0.00 | 83 | 1017.2 |
| 20260902042025 | 24 | 113 | 0.0 | 0.0 | 0.00 | 0.00 | 0.00 | 82 | 1017.2 |
| 20260902041025 | 24 | 314 | 0.0 | 1.6 | 0.00 | 0.00 | 0.00 | 82 | 1017.3 |
| 20260902040026 | 24 | 48 | 0.0 | 1.6 | 0.00 | 0.00 | 0.00 | 82 | 1017.2 |